Date String (YYYY-MM-DD hh:mm:ss) UTC,Instrument flags,Ambient pressure (hPa),Sample flow (lpm),Bypass flow (lpm),Sample temperature (°C),Ambient temperature (°C),ASC tube jacket temperature (°C),LED temperature (°C),Box temperature (°C),Sample RH (%),Span deviation,Mass concentration (μg/m³),Mass concentration (μg/m³),Mass concentration (μg/m³)
DateTimeUTC,F1_M11,P_M11,Q1_M11,Q2_M11,T1_M11,T2_M11,T3_M11,T4_M11,T5_M11,U1_M11,ZSPAN_M11,X0_M11,X2_M11,X1_M11
2022-06-24 23:00:00,,0826.2,5.01,0.00,29.1,27.6,00.0,37.9,31.0,23.0,0000.0,0008.18,0001.96,0001.33
2022-06-24 23:01:00,,0825.9,5.00,0.00,29.1,27.7,00.0,37.9,31.0,22.8,0000.0,0008.16,0001.97,0001.35
2022-06-24 23:02:00,,0826.0,4.99,0.00,29.1,27.9,00.0,37.9,31.1,23.3,0000.0,0007.04,0001.99,0001.36
2022-06-24 23:03:00,,0825.7,5.00,0.00,29.2,28.1,00.0,37.9,31.2,23.5,0000.0,0006.00,0002.02,0001.36
2022-06-24 23:04:00,,0825.8,5.00,0.00,29.2,28.2,00.0,37.9,31.2,24.4,0000.0,0005.80,0002.05,0001.38
2022-06-24 23:05:00,,0825.9,5.00,0.00,29.2,28.3,00.0,37.9,31.3,25.1,0000.0,0005.89,0002.11,0001.41
2022-06-24 23:06:00,,0825.9,5.00,0.00,29.3,28.4,00.0,38.0,31.3,24.9,0000.0,0006.91,0002.20,0001.46
2022-06-24 23:07:00,,0825.9,4.99,0.00,29.3,27.8,00.0,37.9,31.2,24.8,0000.0,0007.20,0002.24,0001.50
2022-06-24 23:08:00,,0825.9,5.01,0.00,29.2,27.1,00.0,37.9,30.9,25.5,0000.0,0007.64,0002.31,0001.55
2022-06-24 23:09:00,,0826.0,5.00,0.00,29.1,26.9,00.0,37.8,30.9,25.9,0000.0,0008.48,0002.41,0001.61
2022-06-24 23:10:00,,0826.0,5.00,0.00,29.1,27.0,00.0,37.8,30.8,26.3,0000.0,0009.34,0002.47,0001.65
2022-06-24 23:11:00,,0826.0,4.99,0.00,29.0,27.1,00.0,37.8,30.8,26.6,0000.0,0009.42,0002.55,0001.69
2022-06-24 23:12:00,,0826.0,5.01,0.00,29.0,27.2,00.0,37.8,30.9,26.8,0000.0,0009.59,0002.69,0001.73
2022-06-24 23:13:00,,0825.9,5.00,0.00,29.0,27.4,00.0,37.8,30.9,27.1,0000.0,0009.75,0002.82,0001.77
2022-06-24 23:14:00,,0825.9,5.01,0.00,29.0,27.6,00.0,37.8,31.0,27.3,0000.0,0009.93,0002.91,0001.82
2022-06-24 23:15:00,,0826.0,5.00,0.00,29.1,27.8,00.0,37.8,31.0,26.9,0000.0,0010.09,0003.00,0001.86
2022-06-24 23:16:00,,0826.0,5.00,0.00,29.1,27.9,00.0,37.9,31.1,26.6,0000.0,0010.13,0003.07,0001.92
2022-06-24 23:17:00,,0826.0,5.00,0.00,29.1,28.1,00.0,37.9,31.1,26.3,0000.0,0009.71,0003.09,0001.93
2022-06-24 23:18:00,,0826.0,5.00,0.00,29.2,28.2,00.0,37.9,31.2,26.3,0000.0,0010.36,0003.12,0001.94
2022-06-24 23:19:00,,0826.0,5.01,0.00,29.2,28.3,00.0,37.9,31.2,26.3,0000.0,0010.53,0003.15,0001.94
2022-06-24 23:20:00,,0826.0,5.00,0.00,29.2,28.3,00.0,37.9,31.3,25.9,0000.0,0010.84,0003.20,0001.94
2022-06-24 23:21:00,,0826.0,5.00,0.00,29.2,27.6,00.0,37.9,31.1,25.9,0000.0,0010.41,0003.24,0001.96
2022-06-24 23:22:00,,0826.2,4.99,0.00,29.1,27.0,00.0,37.8,30.9,26.3,0000.0,0010.51,0003.29,0001.97
2022-06-24 23:23:00,,0826.2,4.99,0.00,29.1,26.8,00.0,37.8,30.8,26.2,0000.0,0010.56,0003.28,0001.98
2022-06-24 23:24:00,,0826.2,4.99,0.00,29.0,26.9,00.0,37.8,30.8,26.3,0000.0,0010.82,0003.33,0001.99
2022-06-24 23:25:00,,0826.1,5.01,0.00,29.0,27.0,00.0,37.8,30.8,26.6,0000.0,0011.57,0003.37,0002.01
2022-06-24 23:26:00,,0826.2,5.01,0.00,29.0,27.2,00.0,37.8,30.8,26.9,0000.0,0012.38,0003.41,0002.02
2022-06-24 23:27:00,,0826.2,5.00,0.00,29.0,27.4,00.0,37.8,30.9,27.2,0000.0,0013.10,0003.43,0002.00
2022-06-24 23:28:00,,0826.3,4.99,0.00,29.0,27.6,00.0,37.8,30.9,27.1,0000.0,0013.85,0003.50,0002.00
2022-06-24 23:29:00,,0826.3,5.00,0.00,29.0,27.8,00.0,37.8,31.0,27.1,0000.0,0013.56,0003.58,0002.02
2022-06-24 23:30:00,,0826.4,4.99,0.00,29.1,27.9,00.0,37.8,31.1,27.2,0000.0,0013.30,0003.62,0002.03
2022-06-24 23:31:00,,0826.5,5.01,0.00,29.1,28.1,00.0,37.8,31.1,27.4,0000.0,0013.72,0003.67,0002.03
2022-06-24 23:32:00,,0826.5,4.99,0.00,29.1,28.2,00.0,37.9,31.2,27.6,0000.0,0013.79,0003.69,0002.05
2022-06-24 23:33:00,,0826.7,5.00,0.00,29.2,28.3,00.0,37.9,31.2,27.4,0000.0,0014.24,0003.72,0002.07
2022-06-24 23:34:00,,0826.7,5.00,0.00,29.2,28.2,00.0,37.9,31.2,27.3,0000.0,0015.27,0003.76,0002.09
2022-06-24 23:35:00,,0826.7,4.99,0.00,29.2,27.5,00.0,37.9,31.0,27.4,0000.0,0016.54,0003.73,0002.10
2022-06-24 23:36:00,,0826.7,4.99,0.00,29.1,26.8,00.0,37.8,30.8,27.3,0000.0,0016.27,0003.73,0002.10
2022-06-24 23:37:00,,0826.7,5.00,0.00,29.0,26.7,00.0,37.8,30.8,27.7,0000.0,0015.66,0003.74,0002.09
2022-06-24 23:38:00,,0826.8,4.99,0.00,29.0,26.8,00.0,37.8,30.7,28.1,0000.0,0015.33,0003.76,0002.10
2022-06-24 23:39:00,,0826.8,5.01,0.00,28.9,26.9,00.0,37.8,30.8,28.4,0000.0,0015.12,0003.76,0002.10
2022-06-24 23:40:00,,0826.8,5.01,0.00,28.9,27.1,00.0,37.8,30.8,28.4,0000.0,0016.40,0003.76,0002.10
2022-06-24 23:41:00,,0826.8,5.00,0.00,29.0,27.3,00.0,37.8,30.9,28.5,0000.0,0016.48,0003.77,0002.10
2022-06-24 23:42:00,,0826.9,5.00,0.00,29.0,27.5,00.0,37.8,30.9,27.5,0000.0,0015.66,0003.75,0002.11
2022-06-24 23:43:00,,0827.0,4.99,0.00,29.0,27.7,00.0,37.8,31.0,27.5,0000.0,0015.54,0003.74,0002.11
2022-06-24 23:44:00,,0827.2,5.00,0.00,29.0,27.9,00.0,37.8,31.0,27.5,0000.0,0015.60,0003.69,0002.11
2022-06-24 23:45:00,,0827.1,5.01,0.00,29.1,28.0,00.0,37.8,31.1,26.7,0000.0,0016.16,0003.70,0002.10
2022-06-24 23:46:00,,0827.2,5.00,0.00,29.1,28.1,00.0,37.8,31.1,26.7,0000.0,0014.85,0003.71,0002.10
2022-06-24 23:47:00,,0827.2,5.00,0.00,29.1,28.3,00.0,37.9,31.2,26.7,0000.0,0014.51,0003.68,0002.09
2022-06-24 23:48:00,,0827.2,5.00,0.00,29.2,28.4,00.0,37.9,31.2,26.5,0000.0,0013.97,0003.65,0002.09
2022-06-24 23:49:00,,0827.2,5.00,0.00,29.2,28.4,00.0,37.9,31.3,26.6,0000.0,0013.67,0003.59,0002.09
2022-06-24 23:50:00,,0827.2,5.00,0.00,29.2,27.9,00.0,37.9,31.2,26.2,0000.0,0013.15,0003.55,0002.08
2022-06-24 23:51:00,,0827.1,5.01,0.00,29.2,27.0,00.0,37.8,30.9,26.6,0000.0,0012.10,0003.53,0002.08
2022-06-24 23:52:00,,0827.1,5.00,0.00,29.1,26.8,00.0,37.8,30.8,27.0,0000.0,0011.57,0003.47,0002.07
2022-06-24 23:53:00,,0827.1,5.00,0.00,29.0,26.8,00.0,37.8,30.8,27.0,0000.0,0011.27,0003.44,0002.07
2022-06-24 23:54:00,,0827.1,5.00,0.00,29.0,26.9,00.0,37.8,30.8,27.3,0000.0,0010.76,0003.41,0002.06
2022-06-24 23:55:00,,0827.2,5.00,0.00,29.0,27.1,00.0,37.8,30.8,27.5,0000.0,0010.46,0003.43,0002.06
2022-06-24 23:56:00,,0827.2,5.01,0.00,29.0,27.3,00.0,37.8,30.9,27.9,0000.0,0009.79,0003.41,0002.06
2022-06-24 23:57:00,,0827.2,4.99,0.00,29.0,27.5,00.0,37.8,30.9,28.3,0000.0,0009.58,0003.40,0002.06
2022-06-24 23:58:00,,0827.2,4.99,0.00,29.0,27.6,00.0,37.8,31.0,28.5,0000.0,0009.49,0003.39,0002.06
2022-06-24 23:59:00,,0827.2,5.00,0.00,29.0,27.8,00.0,37.8,31.0,28.6,0000.0,0009.78,0003.39,0002.07
